CW9792 Weather Reports


time (UTC)temp
C
wind
direction
speed
KPH
gust
KPH
rain 1hr
cm
rain 24hr
cm
rain mn
cm
humidity
%
barometer
mb
20260507065019 8 355 0.0 0.0 0.00 0.30 0.00 63 1015.3
20260507064519 8 355 0.0 0.0 0.00 0.30 0.00 62 1015.4
20260507064018 8 355 0.0 0.0 0.00 0.30 0.00 62 1015.1
20260507063518 9 355 0.0 0.0 0.00 0.30 0.00 62 1015.3
20260507063016 9 355 0.0 0.0 0.00 0.30 0.00 62 1015.4
20260507062517 9 355 0.0 0.0 0.00 0.30 0.00 62 1015.5
20260507062015 9 355 0.0 0.0 0.00 0.30 0.00 62 1015.4
20260507061528 9 355 0.0 0.0 0.00 0.30 0.00 61 1015.5
20260507061014 9 355 0.0 0.0 0.00 0.30 0.00 61 1015.3
20260507060513 9 355 0.0 0.0 0.00 0.30 0.00 60 1015.4
20260507060012 10 355 0.0 0.0 0.00 0.30 0.00 60 1015.2
20260507055512 10 355 0.0 0.0 0.00 0.38 0.00 60 1015.5
20260507055012 10 355 0.0 0.0 0.00 0.38 0.00 59 1015.5
20260507054511 10 355 0.0 0.0 0.00 0.38 0.00 59 1015.7
20260507054011 10 355 0.0 0.0 0.00 0.38 0.00 59 1015.5
20260507053511 10 355 0.0 0.0 0.00 0.38 0.00 59 1015.5
20260507053015 10 355 0.0 0.0 0.00 0.38 0.00 59 1015.5
20260507052512 10 355 0.0 0.0 0.00 0.38 0.00 59 1015.6
20260507052010 10 355 0.0 0.0 0.00 0.38 0.00 59 1015.5
20260507051510 10 355 0.0 0.0 0.00 0.38 0.00 59 1015.4
20260507051010 10 355 0.0 0.0 0.00 0.38 0.00 59 1015.4
20260507050509 10 355 0.0 0.0 0.00 0.38 0.00 59 1015.5
20260507050018 10 355 0.0 0.0 0.00 0.38 0.00 59 1015.6
20260507045508 10 355 0.0 0.0 0.00 0.66 0.00 59 1015.5
20260507045007 10 355 0.0 0.0 0.00 0.66 0.00 59 1015.4
20260507044513 10 355 0.0 0.0 0.00 0.66 0.00 60 1015.2
20260507044004 10 355 0.0 0.0 0.00 0.66 0.00 59 1015.1
20260507043504 10 355 0.0 0.0 0.00 0.66 0.00 59 1015.0
20260507043003 10 355 0.0 0.0 0.00 0.66 0.00 58 1015.0
20260507042502 11 355 0.0 0.0 0.00 0.66 0.00 57 1015.0
20260507042002 11 355 0.0 0.0 0.00 0.66 0.00 57 1015.1
20260507041501 11 355 0.0 0.0 0.00 0.66 0.00 57 1015.3
20260507041101 11 339 0.0 0.0 0.00 0.66 0.00 58 1015.3
20260507040603 11 339 0.0 0.0 0.00 0.66 0.00 58 1015.3
20260507040059 11 327 0.0 0.0 0.00 0.66 0.00 57 1015.3
20260507035559 11 327 0.0 0.0 0.00 0.69 0.66 57 1015.5
20260507035059 11 326 0.0 0.0 0.00 0.69 0.66 57 1015.5
20260507034603 11 326 0.0 0.0 0.00 0.69 0.66 56 1015.4
20260507034058 11 326 0.0 0.0 0.00 0.69 0.66 56 1015.6
20260507033558 11 326 0.0 0.0 0.00 0.69 0.66 55 1015.4
20260507033059 11 326 0.0 0.0 0.00 0.69 0.66 55 1015.5
20260507032558 11 326 0.0 0.0 0.00 0.69 0.66 55 1015.6
20260507032057 11 326 0.0 0.0 0.00 0.69 0.66 55 1015.6
20260507031557 11 326 0.0 0.0 0.00 0.69 0.66 54 1015.6
20260507031100 11 326 0.0 0.0 0.00 0.69 0.66 55 1015.7
20260507030555 11 326 0.0 0.0 0.00 0.69 0.66 55 1015.8
20260507030106 11 343 0.0 0.0 0.00 0.69 0.66 55 1015.6
20260507025555 11 343 0.0 0.0 0.00 0.79 0.66 55 1015.7
20260507025055 11 343 0.0 0.0 0.00 0.79 0.66 57 1015.6
20260507024602 11 343 0.0 0.0 0.00 0.79 0.66 56 1015.5
20260507024057 11 343 0.0 0.0 0.00 0.79 0.66 57 1015.6
20260507023556 11 343 0.0 0.0 0.00 0.79 0.66 58 1015.5
20260507023053 11 343 0.0 0.0 0.00 0.79 0.66 58 1015.4
20260507022553 11 343 0.0 0.0 0.00 0.79 0.66 58 1015.5
20260507022052 11 343 0.0 0.0 0.00 0.79 0.66 57 1015.3
20260507021612 11 343 0.0 0.0 0.00 0.79 0.66 56 1015.2
20260507021051 11 343 0.0 0.0 0.00 0.79 0.66 56 1015.1
20260507020550 11 343 0.0 0.0 0.00 0.79 0.66 56 1014.9
20260507020058 11 343 0.0 0.0 0.00 0.79 0.66 56 1014.9
20260507015547 12 343 0.0 0.0 0.00 0.84 0.66 56 1014.7
20260507015050 12 343 0.0 0.0 0.00 0.84 0.66 55 1014.6
20260507014607 12 343 0.0 0.0 0.00 0.84 0.66 54 1014.6
20260507014046 12 343 0.0 0.0 0.00 0.84 0.66 54 1014.4
20260507013547 12 343 0.0 0.0 0.00 0.84 0.66 54 1014.5
20260507013049 12 343 0.0 0.0 0.00 0.84 0.66 53 1014.4
20260507012545 12 343 0.0 0.0 0.00 0.84 0.66 53 1014.2
20260507012044 12 343 0.0 0.0 0.00 0.84 0.66 53 1014.2
20260507011545 12 340 0.0 0.0 0.00 0.84 0.66 53 1014.3
20260507011044 12 340 0.0 0.0 0.00 0.84 0.66 53 1014.3
20260507010548 12 340 0.0 0.0 0.00 0.84 0.66 53 1014.2
20260507010054 12 331 0.0 0.0 0.00 0.84 0.66 53 1014.1
20260507005544 12 331 0.0 0.0 0.00 0.86 0.66 53 1014.2
20260507005045 13 331 0.0 0.0 0.00 0.86 0.66 53 1014.3
20260507004547 13 331 0.0 0.0 0.00 0.86 0.66 53 1014.0
20260507004044 13 331 0.0 0.0 0.00 0.86 0.66 53 1014.2
20260507003544 13 331 0.0 0.0 0.00 0.86 0.66 53 1014.2
20260507003043 13 331 0.0 0.0 0.00 0.86 0.66 52 1014.1
20260507002544 13 331 0.0 0.0 0.00 0.86 0.66 51 1014.1
20260507002045 13 331 0.0 0.0 0.00 0.86 0.66 51 1014.2
20260507001543 13 331 0.0 0.0 0.00 0.86 0.66 51 1014.3
20260507001042 13 331 0.0 0.0 0.00 0.86 0.66 51 1014.3
20260507000542 13 331 0.0 0.0 0.00 0.86 0.66 52 1014.2
20260507000044 13 331 0.0 0.0 0.00 0.86 0.66 52 1014.2
20260506235542 13 331 0.0 0.0 0.00 0.91 0.66 50 1014.2
20260506235041 13 331 0.0 0.0 0.00 0.91 0.66 50 1014.1
20260506234541 13 331 0.0 0.0 0.00 0.91 0.66 50 1014.0
20260506234041 13 331 0.0 0.0 0.00 0.91 0.66 49 1013.9
20260506233541 14 331 0.0 0.0 0.00 0.91 0.66 48 1013.9
20260506233040 14 331 0.0 0.0 0.00 0.91 0.66 49 1013.8
20260506232540 14 331 0.0 0.0 0.00 0.91 0.66 48 1013.4
20260506232141 14 331 0.0 0.0 0.00 0.91 0.66 47 1013.6
20260506231540 14 336 0.0 0.0 0.00 0.91 0.66 46 1013.7
20260506231044 14 346 0.0 0.0 0.00 0.91 0.66 45 1013.7
20260506230544 14 360 0.0 0.0 0.00 0.91 0.66 44 1013.8
20260506230042 14 5 0.0 0.0 0.00 0.91 0.66 44 1014.0
20260506225540 14 350 0.0 0.0 0.00 0.97 0.66 43 1013.9
20260506225040 14 346 0.0 0.0 0.00 0.97 0.66 45 1013.8
20260506224539 14 348 0.0 0.0 0.00 0.97 0.66 45 1013.9
20260506224038 14 348 0.0 0.0 0.00 0.97 0.66 43 1014.0
20260506223538 14 350 0.0 0.0 0.00 0.97 0.66 44 1013.9
20260506223038 14 355 0.0 0.0 0.00 0.97 0.66 44 1014.2
20260506222538 14 343 0.0 0.0 0.00 0.97 0.66 44 1014.0
20260506222037 14 355 0.0 0.0 0.00 0.97 0.66 44 1013.7
20260506221537 14 338 0.0 0.0 0.00 0.97 0.66 43 1013.5
20260506221037 14 344 0.0 0.0 0.00 0.97 0.66 42 1013.0
20260506220537 14 355 0.0 0.0 0.00 0.97 0.66 42 1013.1
20260506220038 15 346 0.0 0.0 0.00 0.97 0.66 42 1013.2
20260506215538 15 341 0.0 0.0 0.00 0.99 0.66 42 1013.4
20260506215037 15 351 0.0 0.0 0.00 0.99 0.66 41 1013.2
20260506214536 15 5 0.0 0.0 0.00 0.99 0.66 41 1013.3
20260506214038 15 9 0.0 0.0 0.00 0.99 0.66 41 1013.2
20260506213635 15 345 0.0 0.0 0.00 0.99 0.66 40 1013.0
20260506213036 15 5 0.0 0.0 0.00 0.99 0.66 40 1012.5
20260506212536 15 360 0.0 0.0 0.00 0.99 0.66 41 1013.0
20260506212035 15 347 0.0 0.0 0.00 0.99 0.66 40 1012.9
20260506211535 15 355 0.0 0.0 0.00 0.99 0.66 39 1013.1
20260506211035 15 342 0.0 0.0 0.00 0.99 0.66 42 1013.2
20260506210537 15 342 0.0 0.0 0.00 0.99 0.66 40 1013.3
20260506210034 15 342 0.0 0.0 0.00 0.99 0.66 39 1013.6
20260506205535 15 336 0.0 0.0 0.00 0.99 0.66 40 1013.9
20260506205036 15 294 0.0 0.0 0.00 0.99 0.66 42 1013.9
20260506204534 15 360 0.0 0.0 0.00 0.99 0.66 39 1013.8
20260506204033 15 360 0.0 0.0 0.00 0.99 0.66 39 1013.6
20260506203533 15 348 0.0 0.0 0.00 0.99 0.66 43 1013.6
20260506203034 15 345 0.0 0.0 0.00 0.99 0.66 39 1013.6
20260506202533 15 360 0.0 0.0 0.00 0.99 0.66 40 1013.7
20260506202033 15 342 0.0 0.0 0.00 0.99 0.66 42 1013.7
20260506201543 15 350 0.0 0.0 0.00 0.99 0.66 40 1013.6
20260506201034 16 291 0.0 0.0 0.00 0.99 0.66 40 1013.7
20260506200532 15 306 0.0 0.0 0.00 0.99 0.66 40 1013.3
20260506200032 15 14 0.0 0.0 0.00 0.99 0.66 40 1013.4
20260506195533 15 338 0.0 0.0 0.00 0.99 0.66 38 1013.4
20260506195032 15 355 0.0 0.0 0.00 0.99 0.66 40 1013.5
20260506194539 15 21 0.0 0.0 0.00 0.99 0.66 40 1013.5
20260506194033 15 337 0.0 0.0 0.00 0.99 0.66 40 1013.5
20260506193535 16 336 0.0 0.0 0.00 0.99 0.66 40 1013.5
20260506193037 15 342 0.0 1.6 0.00 0.99 0.66 44 1013.6
20260506192531 15 329 0.0 1.6 0.00 0.99 0.66 41 1013.6
20260506192031 15 296 0.0 0.0 0.00 0.99 0.66 39 1013.7
20260506191531 15 294 0.0 0.0 0.00 0.99 0.66 42 1013.9
20260506191031 15 344 0.0 0.0 0.00 0.99 0.66 39 1013.9
20260506190530 15 360 0.0 0.0 0.00 0.99 0.66 39 1013.7
20260506190030 16 5 0.0 0.0 0.00 0.99 0.66 44 1013.6
20260506185530 16 302 0.0 0.0 0.00 0.99 0.66 44 1013.4
20260506185028 15 355 0.0 1.6 0.00 0.99 0.66 40 1013.5
20260506184527 15 360 0.0 0.0 0.00 0.99 0.66 45 1013.3
20260506184029 15 5 0.0 0.0 0.00 0.99 0.66 42 1013.5
20260506183526 15 344 0.0 0.0 0.00 0.99 0.66 42 1013.3
20260506183025 15 344 0.0 0.0 0.00 0.99 0.66 43 1013.1
20260506182526 15 298 0.0 0.0 0.00 0.99 0.66 47 1013.1
20260506182028 14 355 0.0 0.0 0.00 0.99 0.66 44 1013.2
20260506181524 14 338 0.0 0.0 0.00 0.99 0.66 45 1013.2
20260506181026 15 350 0.0 0.0 0.00 0.99 0.66 45 1013.3
20260506180525 15 284 0.0 0.0 0.00 0.99 0.66 45 1013.3
20260506180024 14 5 0.0 0.0 0.00 0.99 0.66 45 1013.0
20260506175526 15 26 0.0 0.0 0.00 0.99 0.66 47 1013.4
20260506175023 14 21 0.0 0.0 0.00 0.99 0.66 47 1013.4
20260506174523 14 10 0.0 0.0 0.00 0.99 0.66 45 1013.5
20260506174026 15 34 0.0 1.6 0.00 0.99 0.66 47 1013.5
20260506173525 15 348 0.0 1.6 0.00 0.99 0.66 50 1013.7
20260506173022 14 5 0.0 0.0 0.00 0.99 0.66 48 1013.7
20260506172521 13 24 0.0 0.0 0.00 0.99 0.66 52 1013.5
20260506172024 13 360 0.0 0.0 0.00 0.99 0.66 49 1013.4
20260506171522 13 346 0.0 0.0 0.00 0.99 0.66 48 1013.4
20260506171022 14 360 0.0 0.0 0.00 0.99 0.66 50 1013.3
20260506170521 13 28 0.0 1.6 0.00 0.99 0.66 48 1013.4
20260506170023 13 36 0.0 0.0 0.00 0.99 0.66 50 1013.5
20260506165523 13 355 0.0 0.0 0.00 0.99 0.66 50 1013.6
20260506165025 13 355 0.0 0.0 0.00 0.99 0.66 48 1013.5
20260506164524 13 5 0.0 1.6 0.00 0.99 0.66 50 1013.6
20260506164023 13 29 0.0 1.6 0.00 0.99 0.66 51 1013.8
20260506163523 13 355 0.0 0.0 0.00 0.99 0.66 51 1013.8
20260506163037 13 31 0.0 1.6 0.00 0.99 0.66 49 1013.8
20260506162524 12 46 0.0 1.6 0.00 0.99 0.66 52 1013.8
20260506162018 12 5 0.0 0.0 0.00 0.99 0.66 50 1013.9
20260506161519 12 19 0.0 0.0 0.00 0.99 0.66 52 1013.9
20260506161017 12 14 0.0 0.0 0.00 0.99 0.66 52 1013.9
20260506160520 12 360 0.0 0.0 0.00 0.99 0.66 51 1014.1
20260506160022 12 23 0.0 0.0 0.00 0.99 0.66 54 1014.2
20260506155517 12 360 0.0 1.6 0.00 0.99 0.66 52 1014.2
20260506155016 12 18 0.0 1.6 0.00 0.99 0.66 52 1014.1
20260506154517 12 5 0.0 1.6 0.00 0.99 0.66 53 1013.8
20260506154019 12 348 0.0 1.6 0.00 0.99 0.66 56 1013.7
20260506153514 11 31 0.0 0.0 0.00 0.99 0.66 55 1013.6
20260506153013 11 9 0.0 0.0 0.00 0.99 0.66 54 1013.7
20260506152513 11 10 0.0 0.0 0.00 0.99 0.66 56 1013.7
20260506152013 11 39 0.0 0.0 0.00 0.99 0.66 58 1013.7
20260506151511 11 15 0.0 1.6 0.00 0.99 0.66 57 1013.4
20260506151010 11 25 0.0 1.6 0.00 0.99 0.66 57 1013.3
20260506150510 10 5 0.0 0.0 0.00 0.99 0.66 57 1013.2
20260506150008 10 31 0.0 0.0 0.00 0.99 0.66 58 1013.2
20260506145508 10 5 0.0 0.0 0.00 0.99 0.66 59 1013.0
20260506145009 10 5 0.0 0.0 0.00 0.99 0.66 59 1013.1
20260506144508 10 9 0.0 1.6 0.00 0.99 0.66 60 1012.9
20260506144006 10 30 0.0 1.6 0.00 0.99 0.66 60 1012.8
20260506143506 10 11 0.0 0.0 0.00 0.99 0.66 60 1012.9
20260506143014 10 5 0.0 0.0 0.00 0.99 0.66 60 1013.0
20260506142506 9 355 0.0 0.0 0.00 0.99 0.66 61 1013.1
20260506142005 9 360 0.0 1.6 0.00 0.99 0.66 62 1013.1
20260506141506 9 9 0.0 0.0 0.00 0.99 0.66 62 1012.9
20260506141006 8 23 0.0 0.0 0.00 0.99 0.66 62 1012.9
20260506140507 8 347 0.0 0.0 0.00 0.99 0.66 62 1013.0
20260506140005 8 14 0.0 0.0 0.00 0.99 0.66 62 1013.1
20260506135504 8 16 0.0 0.0 0.00 0.99 0.66 62 1012.9
20260506135003 8 29 0.0 0.0 0.00 0.99 0.66 62 1012.8
20260506134504 8 20 0.0 0.0 0.00 0.99 0.66 63 1012.8
20260506134002 8 5 0.0 0.0 0.00 0.99 0.66 63 1012.7
20260506133503 8 11 0.0 0.0 0.00 0.99 0.66 63 1012.9
20260506133002 7 355 0.0 0.0 0.00 0.99 0.66 63 1012.9
20260506132503 7 13 0.0 0.0 0.00 0.99 0.66 63 1012.6
20260506132100 7 22 0.0 0.0 0.00 0.99 0.66 63 1012.6
20260506131600 7 17 0.0 1.6 0.00 0.99 0.66 64 1012.4
20260506131059 7 23 0.0 1.6 0.00 0.99 0.66 63 1012.2
20260506130558 7 22 0.0 0.0 0.00 0.99 0.66 64 1012.0
20260506125558 7 17 0.0 1.6 0.00 0.99 0.66 64 1011.9
20260506125057 7 14 0.0 1.6 0.00 0.99 0.66 64 1012.2
20260506124600 7 13 0.0 0.0 0.00 0.99 0.66 64 1012.3
20260506124058 7 11 0.0 0.0 0.00 0.99 0.66 64 1012.0
20260506123557 7 11 0.0 0.0 0.00 0.99 0.66 64 1012.0
20260506123056 7 9 0.0 0.0 0.00 0.99 0.66 64 1012.0
20260506122556 7 19 0.0 0.0 0.00 0.99 0.66 64 1011.9
20260506122054 7 18 0.0 0.0 0.00 0.99 0.66 64 1012.1
20260506121604 7 13 0.0 0.0 0.00 0.99 0.66 64 1012.1
20260506121053 7 9 0.0 0.0 0.00 0.99 0.66 64 1011.9
20260506120553 7 9 0.0 0.0 0.00 0.99 0.66 64 1011.8
20260506120152 7 11 0.0 0.0 0.00 0.99 0.66 64 1011.7
20260506115552 7 360 0.0 0.0 0.00 0.99 0.66 64 1011.5
20260506115051 7 15 0.0 0.0 0.00 0.99 0.66 64 1011.4
20260506114606 7 11 0.0 0.0 0.00 0.99 0.66 64 1011.6
20260506114050 7 360 0.0 0.0 0.00 0.99 0.66 64 1011.7
20260506113549 7 9 0.0 0.0 0.00 0.99 0.66 64 1011.5
20260506113047 7 11 0.0 0.0 0.00 0.99 0.66 64 1011.2
20260506112546 7 5 0.0 0.0 0.00 0.99 0.66 64 1010.8
20260506112046 7 13 0.0 0.0 0.00 0.99 0.66 64 1011.0
20260506111551 7 5 0.0 0.0 0.00 0.99 0.66 64 1010.8
20260506111045 7 5 0.0 0.0 0.00 0.99 0.66 64 1010.9
20260506110545 7 349 0.0 0.0 0.00 0.99 0.66 64 1011.0
20260506110043 7 5 0.0 0.0 0.00 0.99 0.66 64 1010.8
20260506105544 7 5 0.0 0.0 0.00 0.99 0.66 65 1010.5
20260506105041 7 15 0.0 0.0 0.00 0.99 0.66 65 1010.3
20260506104543 8 355 0.0 0.0 0.00 0.99 0.66 65 1010.3
20260506104039 8 14 0.0 0.0 0.00 0.99 0.66 65 1010.1
20260506103538 8 360 0.0 0.0 0.00 0.99 0.66 66 1010.2
20260506103037 8 5 0.0 0.0 0.00 0.99 0.66 66 1009.9
20260506102537 8 350 0.0 0.0 0.00 0.99 0.66 66 1009.9
20260506102036 8 9 0.0 0.0 0.00 0.99 0.66 67 1010.0
20260506101537 8 360 0.0 0.0 0.00 0.99 0.66 68 1009.9
20260506101034 8 5 0.0 0.0 0.00 0.99 0.66 69 1009.6
20260506100533 8 19 0.0 0.0 0.00 0.99 0.66 71 1009.4
20260506100038 8 360 0.0 0.0 0.03 0.99 0.66 71 1009.7
20260506095533 8 355 0.0 0.0 0.03 0.99 0.66 72 1009.5
20260506095032 8 355 0.0 0.0 0.03 0.99 0.66 72 1009.5
20260506094531 8 5 0.0 0.0 0.03 0.99 0.66 72 1009.3
20260506094029 8 17 0.0 0.0 0.03 0.99 0.66 72 1009.0
20260506093532 9 19 0.0 0.0 0.05 0.99 0.66 72 1009.0
20260506093052 9 360 0.0 0.0 0.05 0.99 0.66 72 1008.9
20260506092528 9 25 0.0 0.0 0.05 0.99 0.66 72 1009.0
20260506092028 9 11 0.0 0.0 0.08 0.99 0.66 72 1008.8
20260506091529 9 14 0.0 0.0 0.10 0.99 0.66 72 1008.8
20260506091028 9 5 0.0 0.0 0.10 0.99 0.66 72 1009.0
20260506090527 9 5 0.0 0.0 0.13 0.99 0.66 72 1009.0
20260506090026 9 11 0.0 0.0 0.10 0.97 0.64 72 1009.1
20260506085525 9 5 0.0 0.0 0.10 0.97 0.64 72 1008.8
20260506085025 9 5 0.0 0.0 0.10 0.97 0.64 72 1008.7
20260506084524 9 18 0.0 0.0 0.10 0.97 0.64 72 1008.4
20260506084025 9 13 0.0 0.0 0.10 0.97 0.64 72 1008.8
20260506083523 9 360 0.0 0.0 0.08 0.94 0.61 72 1008.7
20260506083022 9 360 0.0 0.0 0.08 0.94 0.61 72 1008.6
20260506082524 9 32 0.0 0.0 0.05 0.91 0.58 72 1008.5
20260506082022 9 5 0.0 0.0 0.05 0.91 0.58 72 1008.7
20260506081522 9 355 0.0 0.0 0.03 0.89 0.56 72 1008.5
20260506081022 9 5 0.0 0.0 0.03 0.89 0.56 72 1008.3
20260506080521 9 360 0.0 0.0 0.00 0.86 0.53 72 1008.4
20260506073519 9 5 0.0 0.0 0.05 0.86 0.53 72 1007.4
20260506073016 9 355 0.0 0.0 0.05 0.86 0.53 72 1007.3
20260506072517 10 349 0.0 0.0 0.08 0.86 0.53 72 1007.5
20260506072018 10 10 0.0 0.0 0.13 0.86 0.53 72 1007.6
20260506071514 10 350 0.0 0.0 0.13 0.86 0.53 72 1007.5
20260506071012 10 355 0.0 0.0 0.15 0.86 0.53 72 1007.4
20260506070512 10 360 0.0 0.0 0.15 0.86 0.53 72 1007.2